User: anonymous   Login
Location: Ergnies
(50.0854°N, 2.0375°E)
Time: 05:37:24
(UTC+00:00)
Language:

Cosmos 381 Rocket - Orbit

View from above orbital plane
View from above orbital plane
View from above satellite
View from above satellite

Ground track
Ground track

The orbit is defined by the following mean orbital elements,

1 04784U          26065.81742948 +.00000000 +00000-0 +13097-3 0 00001
2 04784  74.0272  84.0177 0025199 121.6049  50.7455 13.76992101    08
Epoch (UTC): 06 March 2026 19:37:05
Eccentricity: 0.0025199
inclination: 74.0272°
perigee height: 956 km
apogee height: 993 km
right ascension of ascending node: 84.0177°
argument of perigee: 121.6049°
revolutions per day: 13.76992101
mean anomaly at epoch: 50.7455°

The dashed part of the orbit path shows where the satellite is in the earth's shadow,  

DLR